Weather History for Rickenbacker, OH

Change the Weather History Date:

Tuesday, December 24, 2013

  Actual Average Record
Temperature  
Mean Temperature 22 °F -  
Max Temperature 30 °F 36 °F 56 °F (2008)
Min Temperature 15 °F 22 °F 5 °F (2004)
Degree Days  
Heating Degree Days 42    
Moisture  
Dew Point 11 °F    
Average Humidity 66    
Maximum Humidity 78    
Minimum Humidity 55    
Precipitation  
Precipitation 0.00 in - - ()
Sea Level Pressure  
Sea Level Pressure 30.45 in    
Wind  
Wind Speed 10 mph (WNW)    
Max Wind Speed 18 mph    
Max Gust Speed 23 mph    
Visibility 9 miles    
Events Snow    
Averages and records for this station are not official NWS values.
T = Trace of Precipitation, MM = Missing Value Source: NWS Daily Summary

Daily Weather History Graph

Daily Weather History Graph

Search for Another Location

Airport:

Trip Planner

Search our weather history database for the weather conditions in past years. The results will help you decide how hot, cold, wet, or windy it might be!

Date:

Astronomy

Dec. 24, 2013 Rise Set
Actual Time 7:50 AM EST 5:12 PM EST
Civil Twilight 7:20 AM EST 5:42 PM EST
Nautical Twilight 6:46 AM EST 6:16 PM EST
Astronomical Twilight 6:13 AM EST 6:49 PM EST
Moon No Moon Rise 11:45 AM EST (12/24)
Length of Visible Light 10h 22m
Length of Day
9h 21m
Waning Gibbous, 59% of the Moon is Illuminated
Dec 24
Waning Gibbous
Dec 25
Last Quarter
Jan 1
New
Jan 7
First Quarter
Jan 15
Full

Hourly Weather History & Observations

Time (EST) Temp. Windchill Dew Point Humidity Pressure Visibility Wind Dir Wind Speed Gust Speed Precip Events Conditions
12:15 AM 30.2 °F 21.9 °F 18.3 °F 61% 30.33 in 10.0 mi West 9.2 mph - N/A   Overcast
12:35 AM 30.2 °F 21.3 °F 18.0 °F 60% 30.32 in 10.0 mi West 10.4 mph - N/A   Overcast
12:55 AM 30.0 °F 24.1 °F 18.0 °F 61% 30.32 in 10.0 mi West 5.8 mph - N/A   Overcast
1:15 AM 29.8 °F 22.2 °F 17.8 °F 61% 30.31 in 10.0 mi West 8.1 mph - N/A   Overcast
1:35 AM 29.8 °F 23.0 °F 18.0 °F 61% 30.31 in 10.0 mi West 6.9 mph - N/A   Overcast
1:55 AM 29.8 °F 20.9 °F 17.6 °F 60% 30.32 in 10.0 mi West 10.4 mph - N/A   Overcast
2:15 AM 29.7 °F 20.1 °F 17.6 °F 61% 30.32 in 10.0 mi West 11.5 mph - N/A   Overcast
2:35 AM 29.3 °F 19.6 °F 17.2 °F 61% 30.32 in 10.0 mi West 11.5 mph - N/A Snow Light Snow
2:55 AM 28.9 °F 19.8 °F 18.9 °F 66% 30.32 in 4.0 mi West 10.4 mph - N/A Snow Light Snow
3:15 AM 28.4 °F 19.1 °F 20.1 °F 71% 30.32 in 7.0 mi West 10.4 mph - N/A Snow Light Snow
3:35 AM 28.4 °F 19.7 °F 21.0 °F 74% 30.33 in 3.0 mi West 9.2 mph - N/A Snow Light Snow
3:55 AM 28.2 °F 17.7 °F 21.7 °F 77% 30.32 in 4.0 mi West 12.7 mph - N/A Snow Light Snow
4:15 AM 27.7 °F 16.6 °F 21.4 °F 77% 30.32 in 2.5 mi WNW 13.8 mph 18.4 mph N/A Snow Light Snow
4:35 AM 26.1 °F 15.0 °F 19.9 °F 78% 30.32 in 1.8 mi NW 12.7 mph - N/A Snow Light Snow
4:55 AM 25.0 °F 12.2 °F 18.9 °F 78% 30.33 in 4.0 mi NW 16.1 mph - N/A Snow Light Snow
5:15 AM 24.4 °F 13.0 °F 17.6 °F 75% 30.33 in 4.0 mi WNW 12.7 mph - N/A Snow Light Snow
5:35 AM 23.9 °F 10.8 °F 16.7 °F 74% 30.34 in 10.0 mi NW 16.1 mph 21.9 mph N/A   Overcast
5:55 AM 23.2 °F 10.3 °F 15.6 °F 73% 30.34 in 7.0 mi WNW 15.0 mph 21.9 mph N/A Snow Light Snow
6:15 AM 22.8 °F 8.9 °F 14.4 °F 70% 30.35 in 10.0 mi WNW 17.3 mph 23.0 mph N/A   Overcast
6:35 AM 21.4 °F 9.1 °F 12.6 °F 69% 30.37 in 10.0 mi NW 12.7 mph 16.1 mph N/A   Mostly Cloudy
6:55 AM 19.6 °F 4.3 °F 11.1 °F 70% 30.38 in 10.0 mi WNW 18.4 mph 21.9 mph N/A   Mostly Cloudy
7:15 AM 18.1 °F 5.6 °F 7.7 °F 64% 30.39 in 10.0 mi WNW 11.5 mph - N/A   Scattered Clouds
7:35 AM 17.2 °F 3.9 °F 7.5 °F 66% 30.40 in 10.0 mi WNW 12.7 mph 20.7 mph N/A   Scattered Clouds
7:55 AM 16.0 °F 2.3 °F 6.1 °F 65% 30.41 in 10.0 mi WNW 12.7 mph - N/A   Clear
8:15 AM 15.6 °F 3.2 °F 6.4 °F 67% 30.42 in 10.0 mi WNW 10.4 mph 18.4 mph N/A   Scattered Clouds
8:35 AM 15.8 °F 1.4 °F 6.1 °F 66% 30.43 in 10.0 mi WNW 13.8 mph 20.7 mph N/A   Clear
8:55 AM 16.0 °F 2.3 °F 6.3 °F 66% 30.44 in 10.0 mi WNW 12.7 mph - N/A   Mostly Cloudy
9:15 AM 16.3 °F 3.4 °F 7.2 °F 67% 30.45 in 7.0 mi WNW 11.5 mph - N/A Snow Light Snow
9:35 AM 16.3 °F 2.7 °F 7.3 °F 68% 30.46 in 10.0 mi WNW 12.7 mph - N/A Snow Light Snow
9:55 AM 16.7 °F 2.6 °F 8.2 °F 69% 30.48 in 1.5 mi WNW 13.8 mph - N/A Snow Light Snow
10:15 AM 16.9 °F 2.8 °F 7.7 °F 67% 30.48 in 10.0 mi NW 13.8 mph 19.6 mph N/A   Overcast
10:35 AM 17.1 °F 3.0 °F 7.5 °F 66% 30.49 in 10.0 mi NW 13.8 mph 18.4 mph N/A   Overcast
10:55 AM 17.2 °F 3.3 °F 6.3 °F 62% 30.50 in 10.0 mi WNW 13.8 mph 18.4 mph N/A   Overcast
11:15 AM 17.4 °F 4.7 °F 5.7 °F 60% 30.50 in 10.0 mi NW 11.5 mph 18.4 mph N/A   Overcast
11:35 AM 17.8 °F 8.5 °F 5.7 °F 59% 30.49 in 10.0 mi WNW 6.9 mph - N/A   Mostly Cloudy
11:55 AM 18.9 °F 6.5 °F 6.8 °F 59% 30.49 in 10.0 mi West 11.5 mph - N/A   Scattered Clouds
12:15 PM 19.4 °F 9.5 °F 6.8 °F 58% 30.49 in 10.0 mi NW 8.1 mph - N/A   Scattered Clouds
12:35 PM 19.6 °F 8.9 °F 6.3 °F 56% 30.49 in 10.0 mi NNW 9.2 mph - N/A   Mostly Cloudy
12:55 PM 19.6 °F 8.1 °F 6.1 °F 56% 30.49 in 10.0 mi NW 10.4 mph - N/A   Overcast
1:15 PM 20.1 °F 15.2 °F 7.0 °F 57% 30.49 in 10.0 mi WNW 3.5 mph - N/A   Scattered Clouds
1:35 PM 21.0 °F 10.6 °F 7.2 °F 55% 30.49 in 10.0 mi NW 9.2 mph - N/A   Scattered Clouds
1:55 PM 20.7 °F 13.0 °F 7.5 °F 57% 30.49 in 10.0 mi West 5.8 mph - N/A   Mostly Cloudy
2:15 PM 21.6 °F 14.0 °F 8.1 °F 56% 30.49 in 10.0 mi NW 5.8 mph - N/A   Mostly Cloudy
2:35 PM 21.6 °F 9.3 °F 8.1 °F 56% 30.50 in 10.0 mi West 12.7 mph 17.3 mph N/A   Overcast
2:55 PM 21.9 °F 12.5 °F 8.8 °F 57% 30.50 in 10.0 mi WNW 8.1 mph - N/A   Overcast
3:15 PM 21.4 °F 12.8 °F 8.6 °F 58% 30.51 in 10.0 mi WNW 6.9 mph - N/A   Overcast
3:35 PM 21.2 °F 10.1 °F 9.0 °F 59% 30.51 in 10.0 mi WSW 10.4 mph - N/A   Overcast
3:55 PM 21.4 °F 11.1 °F 9.5 °F 60% 30.52 in 10.0 mi West 9.2 mph - N/A   Overcast
4:15 PM 21.4 °F 9.7 °F 9.3 °F 60% 30.52 in 10.0 mi WNW 11.5 mph - N/A   Overcast
4:35 PM 21.2 °F 10.1 °F 9.3 °F 60% 30.53 in 10.0 mi West 10.4 mph - N/A   Overcast
4:55 PM 20.5 °F 10.8 °F 9.5 °F 63% 30.53 in 10.0 mi West 8.1 mph - N/A   Mostly Cloudy
5:15 PM 20.3 °F 11.5 °F 9.3 °F 63% 30.53 in 10.0 mi West 6.9 mph - N/A   Mostly Cloudy
5:35 PM 19.9 °F 11.1 °F 9.5 °F 64% 30.53 in 10.0 mi West 6.9 mph - N/A   Overcast
5:55 PM 20.1 °F 12.3 °F 9.9 °F 64% 30.54 in 10.0 mi West 5.8 mph - N/A   Mostly Cloudy
6:15 PM 19.4 °F 10.4 °F 9.3 °F 65% 30.54 in 10.0 mi WNW 6.9 mph - N/A   Scattered Clouds
6:35 PM 18.9 °F 12.1 °F 9.3 °F 66% 30.54 in 10.0 mi NW 4.6 mph - N/A   Scattered Clouds
6:55 PM 18.7 °F 11.9 °F 9.5 °F 67% 30.54 in 10.0 mi NNW 4.6 mph - N/A   Clear
7:15 PM 18.3 °F 11.5 °F 9.5 °F 68% 30.54 in 10.0 mi NNW 4.6 mph - N/A   Clear
7:35 PM 18.3 °F 10.2 °F 9.5 °F 68% 30.54 in 10.0 mi North 5.8 mph - N/A   Clear
7:55 PM 18.0 °F 11.1 °F 9.5 °F 70% 30.55 in 10.0 mi North 4.6 mph - N/A   Clear
8:15 PM 18.0 °F 12.7 °F 9.5 °F 70% 30.54 in 10.0 mi North 3.5 mph - N/A   Clear
8:35 PM 17.8 °F - 9.3 °F 69% 30.54 in 10.0 mi Calm Calm - N/A   Clear
8:55 PM 17.6 °F - 9.3 °F 70% 30.53 in 10.0 mi Calm Calm - N/A   Clear
9:15 PM 18.0 °F - 9.1 °F 68% 30.54 in 10.0 mi Calm Calm - N/A   Clear
9:35 PM 18.0 °F - 9.9 °F 71% 30.53 in 10.0 mi Calm Calm - N/A   Clear
9:55 PM 17.4 °F 12.1 °F 10.4 °F 74% 30.52 in 10.0 mi ENE 3.5 mph - N/A   Clear
10:15 PM 16.9 °F 11.5 °F 10.2 °F 75% 30.52 in 10.0 mi NE 3.5 mph - N/A   Clear
10:35 PM 16.7 °F 11.2 °F 10.2 °F 76% 30.52 in 10.0 mi ENE 3.5 mph - N/A   Clear
10:55 PM 16.5 °F 8.1 °F 9.9 °F 75% 30.52 in 10.0 mi NE 5.8 mph - N/A   Clear
11:15 PM 16.3 °F 10.8 °F 9.3 °F 74% 30.52 in 10.0 mi ENE 3.5 mph - N/A   Clear
11:35 PM 16.5 °F - 9.9 °F 75% 30.51 in 10.0 mi Calm Calm - N/A   Clear
11:55 PM 16.7 °F - 10.4 °F 76% 30.51 in 10.0 mi Calm Calm - N/A   Clear